Total_Precipitation_Accumulation
2.66 2.67 2.71 2.70 2.40 2.42 2.71 2.98 2.88 3.00 3.00 2.78 2.40 2.21 2.10 2.13 2.11 2.27 2.49 2.35 2.29 2.42 2.80 3.02 2.92 2.69 2.51 2.18 1.83 1.70 1.67 1.60 1.51 1.24 1.16 1.19 1.27 1.32 1.22 1.08 1.00 0.94 0.76
2.72 2.86 2.89 2.83 2.47 2.39 2.65 2.86 2.75 3.08 3.04 3.00 2.60 2.42 2.30 2.22 2.08 2.18 2.43 2.51 2.33 2.26 2.52 3.01 3.25 3.12 3.00 2.84 2.38 2.01 1.91 1.87 1.76 1.40 1.17 1.16 1.27 1.37 1.37 1.31 1.15 0.99 0.79
2.77 2.77 2.71 2.72 2.69 2.56 2.75 2.84 2.85 3.00 2.87 2.75 2.72 2.63 2.50 2.45 2.24 2.22 2.33 2.55 2.41 2.25 2.37 2.76 3.17 3.25 3.16 3.24 3.06 2.67 2.39 2.26 2.07 1.71 1.41 1.24 1.25 1.29 1.38 1.41 1.30 1.08 0.83
2.81 2.95 2.70 2.59 2.83 2.78 2.94 3.24 3.15 3.25 3.36 3.22 2.97 2.70 2.52 2.61 2.25 2.19 2.27 2.51 2.71 2.31 2.43 2.73 3.05 3.15 3.31 3.61 3.80 3.62 3.14 2.71 2.42 2.17 1.90 1.64 1.52 1.47 1.36 1.36 1.33 1.13 0.88
2.90 3.24 3.12 3.10 3.02 3.01 3.07 2.76 3.34 3.62 3.66 3.49 2.94 2.70 2.43 2.43 2.28 2.12 2.24 2.20 2.38 2.40 2.40 2.46 2.83 2.93 3.27 3.82 4.15 4.26 4.04 3.59 3.17 3.03 2.88 2.54 2.33 1.97 1.57 1.41 1.31 1.09 0.88
3.17 3.46 3.34 3.30 3.15 3.23 3.25 3.28 3.72 3.66 3.40 3.41 2.73 2.39 2.28 2.09 2.10 2.08 1.89 1.98 2.11 2.05 2.25 2.38 2.68 2.30 2.61 3.09 3.45 3.92 4.37 4.52 4.20 4.09 4.09 3.83 3.42 2.68 1.94 1.59 1.33 1.15 1.02
3.07 3.42 3.28 3.53 3.41 3.26 3.24 3.23 3.51 3.59 3.33 3.52 3.42 2.90 2.29 1.83 1.89 1.81 1.80 1.96 1.94 2.02 2.29 2.61 2.86 2.78 2.56 2.55 2.58 3.04 3.95 4.81 4.99 4.70 4.77 4.86 4.39 3.43 2.50 1.94 1.52 1.29 1.19
2.86 2.93 3.25 3.08 3.15 3.27 3.20 3.33 3.59 3.48 3.10 3.54 3.76 3.87 3.16 2.62 2.05 1.60 1.93 2.09 2.14 2.37 2.37 2.52 2.90 3.10 2.88 2.99 2.48 2.31 3.14 4.16 4.75 4.80 4.79 4.88 4.55 3.75 2.96 2.46 1.87 1.50 1.32
2.67 2.84 3.00 3.08 3.12 3.02 3.12 3.35 3.41 3.45 3.32 3.39 3.62 3.98 3.66 3.10 2.51 1.92 1.79 2.00 2.34 2.60 2.53 2.56 2.54 2.73 2.73 3.15 3.25 2.72 2.54 2.82 3.54 4.47 4.96 4.82 4.29 3.59 3.02 2.78 2.46 1.95 1.55
2.65 2.73 2.85 2.93 2.97 2.82 2.96 2.81 2.96 3.42 3.52 3.29 3.41 3.35 3.34 3.28 3.10 2.55 2.04 1.91 2.10 2.21 2.32 2.20 2.17 2.40 2.66 3.00 3.15 2.86 2.59 2.41 2.64 3.60 4.26 4.37 4.04 3.47 3.06 2.98 3.15 2.83 2.16
2.51 2.31 2.41 2.67 2.76 2.67 2.63 2.66 2.91 3.04 3.02 3.01 3.13 3.19 3.24 3.26 2.97 2.78 2.36 2.06 1.93 1.70 1.76 1.89 1.98 2.03 2.18 2.67 3.02 2.68 2.52 2.25 2.26 2.66 3.15 3.49 3.61 3.37 3.05 3.03 3.36 3.52 3.15
2.18 2.00 2.07 2.36 2.47 2.49 2.49 2.47 2.54 2.62 2.67 2.71 2.79 2.85 3.04 3.08 2.99 3.06 2.59 2.20 2.01 1.55 1.45 1.56 1.63 1.72 1.90 2.19 2.24 2.26 2.05 1.94 1.98 2.05 2.15 2.55 2.99 3.18 3.19 3.22 3.48 3.78 3.89
1.94 1.93 1.97 2.11 2.15 2.19 2.18 2.27 2.34 2.38 2.54 2.63 2.63 2.68 2.78 2.78 2.80 2.92 2.83 2.41 2.19 1.67 1.57 1.56 1.53 1.72 1.72 1.99 2.26 2.11 1.81 1.74 1.69 1.64 1.64 1.76 2.05 2.40 2.64 2.87 3.19 3.57 3.83
1.85 1.88 1.81 1.79 1.86 1.89 1.89 2.21 2.26 2.39 2.55 2.62 2.49 2.79 2.79 2.61 2.72 2.79 2.92 3.08 2.86 2.37 2.10 1.87 1.64 1.56 1.63 1.86 2.13 2.10 1.72 1.63 1.48 1.38 1.35 1.40 1.51 1.66 1.86 2.16 2.54 2.87 3.04
1.75 1.74 1.71 1.82 1.80 1.85 1.98 2.19 2.21 2.30 2.53 2.57 2.57 2.78 2.75 2.59 2.60 2.69 2.95 3.26 3.43 3.03 2.66 2.47 2.14 1.68 1.62 1.71 1.93 1.72 1.58 1.50 1.35 1.22 1.16 1.17 1.24 1.33 1.42 1.56 1.78 2.02 2.19
1.60 1.58 1.60 1.68 1.74 1.77 1.87 2.11 2.13 2.22 2.35 2.38 2.44 2.55 2.61 2.53 2.60 2.66 2.88 3.04 3.19 3.25 2.82 2.51 2.31 1.82 1.70 1.52 1.74 1.55 1.49 1.62 1.49 1.35 1.25 1.16 1.15 1.20 1.26 1.34 1.48 1.59 1.71
1.54 1.54 1.59 1.68 1.73 1.76 1.89 2.03 2.03 2.15 2.16 2.14 2.14 2.28 2.43 2.65 2.58 2.40 2.53 2.67 2.85 3.08 2.75 2.48 2.32 2.08 2.08 1.98 1.89 1.82 1.67 1.65 1.50 1.43 1.32 1.26 1.21 1.18 1.19 1.21 1.29 1.40 1.52
1.47 1.50 1.59 1.67 1.64 1.74 1.92 2.02 2.01 2.16 2.22 2.18 2.23 2.34 2.32 2.42 2.47 2.37 2.37 2.39 2.61 2.85 2.75 2.55 2.57 2.46 2.31 2.21 2.18 2.07 1.73 1.58 1.56 1.46 1.28 1.21 1.20 1.18 1.17 1.18 1.25 1.32 1.40
1.45 1.49 1.49 1.52 1.58 1.68 1.84 1.90 2.02 2.13 2.23 2.26 2.21 2.11 2.03 2.17 2.30 2.48 2.51 2.42 2.46 2.59 2.77 2.66 2.60 2.68 2.45 2.24 2.34 2.19 1.99 1.97 1.56 1.50 1.38 1.22 1.19 1.17 1.12 1.10 1.13 1.21 1.27
1.43 1.50 1.52 1.60 1.65 1.71 1.76 1.87 1.97 1.91 1.89 1.87 1.85 1.84 1.83 1.90 2.08 2.49 2.52 2.56 2.57 2.59 2.76 2.78 2.75 2.77 2.80 2.56 2.55 2.33 2.20 2.07 1.81 1.50 1.47 1.25 1.20 1.18 1.14 1.07 1.07 1.16 1.27
1.37 1.50 1.59 1.59 1.64 1.67 1.59 1.69 1.68 1.59 1.65 1.56 1.50 1.49 1.49 1.59 1.64 1.81 1.88 2.19 2.45 2.54 2.61 2.73 2.73 2.77 2.80 2.90 2.63 2.46 2.40 2.31 2.15 1.86 1.80 1.45 1.29 1.21 1.14 1.11 1.08 1.13 1.27
1.48 1.57 1.61 1.60 1.59 1.44 1.59 1.63 1.58 1.50 1.49 1.44 1.38 1.35 1.29 1.35 1.43 1.44 1.44 1.61 1.88 2.16 2.45 2.68 2.74 2.78 2.86 2.94 2.92 2.75 2.63 2.46 2.35 2.09 2.07 1.95 1.77 1.76 1.54 1.25 1.22 1.19 1.25
1.46 1.53 1.62 1.72 1.72 1.73 1.74 1.63 1.54 1.40 1.38 1.36 1.32 1.34 1.16 1.12 1.24 1.17 1.30 1.34 1.40 1.58 1.76 2.15 2.43 2.48 2.62 2.72 2.91 2.82 2.76 2.68 2.55 2.43 2.45 2.46 2.32 2.23 1.85 1.63 1.57 1.27 1.19
1.48 1.54 1.59 1.67 1.74 1.69 1.72 1.56 1.44 1.25 1.25 1.32 1.30 1.31 1.28 1.25 1.26 1.29 1.35 1.29 1.22 1.26 1.36 1.43 1.53 1.72 1.98 2.33 2.63 2.76 2.87 2.89 2.87 2.77 2.77 2.85 2.67 2.56 2.27 1.92 1.68 1.39 1.20
1.58 1.58 1.65 1.72 1.78 1.80 1.77 1.53 1.39 1.23 1.26 1.32 1.26 1.27 1.34 1.26 1.30 1.23 1.23 1.26 1.21 1.17 1.19 1.27 1.23 1.35 1.50 1.72 2.02 2.24 2.43 2.66 2.91 2.99 2.93 2.97 2.86 2.74 2.75 2.53 2.04 1.73 1.43
1.97 1.87 1.74 1.73 1.72 1.77 1.77 1.54 1.44 1.30 1.39 1.47 1.50 1.47 1.45 1.33 1.28 1.21 1.14 1.19 1.17 1.14 1.20 1.20 1.15 1.13 1.14 1.27 1.51 1.65 1.83 2.12 2.40 2.63 2.51 2.55 2.66 2.87 3.10 2.92 2.50 2.10 1.74